#timestamp,LO_Frequency,Hit 
1498726815.1,286047033.4,N
1498726835.8,286047036.1,N
1498726855.7,286047032.1,N
1498726875.5,286047024.3,N
1498726895.3,286047021.4,N
1498726915.2,286047015.3,N
1498726935.9,286047015.0,N
1498726955.7,286047018.2,N
1498726975.6,286047019.3,N
1498726995.4,286047023.2,N
1498727015.2,286047021.1,N
1498727035.0,286047021.7,N
1498727035.9,286047021.7,N
1498727055.8,286047020.7,N
1498727075.6,286047024.7,N
1498727095.4,286047024.6,N
1498727115.3,286047022.3,N
1498727135.1,286047024.5,N
1498727155.8,286047028.0,N
1498727175.7,286047027.8,N
1498727195.5,286047025.0,N
1498727215.3,286047027.7,N
1498727235.2,286047029.0,N
1498727255.9,286047025.5,N
1498727275.7,286047024.7,N
1498727295.5,286047021.4,N
1498727315.4,286047023.1,N
1498727335.2,286047023.3,N
1498727355.0,286047021.2,N
1498727355.9,286047021.2,N
1498727375.8,286047021.7,N
1498727395.6,286047021.4,N
1498727415.4,286047023.4,N
1498727435.3,286047020.4,N
1498727455.1,286047013.2,N
1498727475.8,286047010.9,N
1498727495.7,286047013.6,N
1498727515.5,286047011.0,N
1498727535.3,286047013.7,N
1498727555.2,286047015.0,N
1498727575.9,286047012.7,N
1498727595.7,286047009.7,N
1498727615.6,286047011.4,N
1498727635.4,286047009.1,N
1498727655.2,286047004.8,N
1498727675.0,286047002.6,N
1498727675.9,286047002.6,N
1498727695.8,286046997.9,N
1498727715.6,286046993.4,N
1498727735.4,286046993.6,N
1498727755.3,286046992.1,N
1498727775.1,286046990.9,N
1498727795.8,286046992.8,N
1498727815.7,286046991.0,N
1498727835.5,286046992.5,N
1498727855.3,286046995.5,N
1498727875.2,286046996.5,N
1498727895.9,286047000.8,N
1498727915.7,286047003.4,N
1498727935.6,286047001.4,N
1498727955.4,286047002.2,N
1498727975.2,286047002.9,N
1498727995.0,286047006.3,N
1498727996.0,286047006.3,N
1498728015.8,286047011.9,N
1498728035.6,286047010.8,N
1498728055.4,286047012.2,N
1498728075.3,286047009.5,N
1498728095.1,286047008.7,N
1498728115.8,286047007.3,N
1498728135.7,286047007.1,N
1498728155.5,286047007.7,N
1498728175.3,286047008.4,N
1498728195.2,286047010.5,N
1498728215.9,286047010.8,N
1498728235.7,286047007.9,N
1498728255.6,286047008.4,N
1498728275.4,286047007.3,N
1498728295.2,286047007.3,N
1498728315.1,286047010.4,N
1498728316.0,286047010.4,N
1498728335.8,286047006.4,N
1498728355.6,286047012.4,N
1498728375.4,286047016.7,N
1498728395.3,286047016.2,N
1498728415.1,286047017.8,N
1498728435.8,286047020.0,N
1498728455.7,286047021.5,N
1498728475.5,286047025.1,N
1498728495.3,286047023.2,N
1498728515.2,286047019.5,N
1498728535.9,286047021.0,N
1498728555.7,286047017.6,N
1498728575.6,286047018.2,N
1498728595.4,286047022.0,N
1498728615.2,286047022.7,N
1498728635.1,286047021.4,N
1498728636.0,286047021.4,N
1498728655.8,286047018.0,N
1498728675.6,286047019.7,N
1498728695.4,286047023.3,N
1498728715.3,286047024.0,N
1498728735.1,286047023.3,N
1498728755.8,286047015.7,N
1498728775.7,286047012.5,N
1498728795.5,286047016.6,N
1498728815.3,286047019.0,N
1498728835.2,286047021.8,N
1498728855.9,286047015.7,N
1498728875.7,286047013.8,N
1498728895.6,286047017.2,N
1498728915.4,286047011.9,N
1498728935.2,286047014.7,N
1498728955.1,286047011.1,N
1498728956.0,286047011.1,N
1498728975.8,286047007.4,N
1498728995.6,286047005.3,N
1498729015.4,286047007.1,N
1498729035.3,286047010.0,N
1498729055.1,286047006.7,N
1498729075.8,286047006.8,N
1498729095.7,286047009.2,N
1498729115.5,286047001.8,N
1498729135.3,286046998.4,N
1498729155.2,286047004.2,N
1498729175.9,286047009.1,N
1498729195.7,286047014.9,N
1498729215.6,286047017.2,N
1498729235.4,286047020.0,N
1498729255.2,286047018.4,N
1498729275.1,286047017.2,N
1498729276.0,286047017.2,N
1498729295.8,286047012.1,N
1498729315.6,286047005.1,N
1498729335.4,286046999.7,N
1498729355.3,286046999.3,N
1498729375.1,286047002.4,N
1498729395.8,286047003.1,N
1498729415.7,286047006.2,N
1498729435.5,286047011.5,N
1498729455.3,286047014.8,N
1498729475.2,286047014.6,N
1498729495.9,286047016.6,N
1498729515.7,286047017.1,N
1498729535.6,286047016.9,N
1498729555.4,286047013.7,N
1498729575.2,286047006.1,N
1498729595.1,286047006.0,N
1498729596.0,286047006.0,N
1498729615.8,286047004.8,N
1498729635.6,286047004.9,N
1498729655.4,286047004.8,N
1498729675.3,286047006.4,N
1498729695.1,286047008.8,N
1498729715.8,286047006.2,N
1498729735.7,286047003.9,N
1498729755.5,286047001.1,N
1498729775.3,286047002.8,N
1498729795.2,286047001.5,N
1498729815.9,286047002.2,N
1498729835.7,286047002.5,N
1498729855.6,286047002.8,N
1498729875.4,286047004.1,N
1498729895.2,286047005.8,N
1498729915.1,286047007.3,N
1498729916.0,286047007.3,N
1498729935.8,286047009.4,N
1498729955.6,286047010.8,N
1498729975.5,286047014.0,N
1498729995.3,286047014.6,N
1498730015.1,286047015.1,N
1498730035.8,286047018.8,N
1498730055.7,286047020.2,N
1498730075.5,286047019.8,N
1498730095.3,286047019.8,N
1498730115.2,286047020.0,N
1498730135.9,286047015.2,N
1498730155.7,286047008.1,N
1498730175.6,286047005.0,N
1498730195.4,286047005.5,N
1498730215.2,286047003.1,N
1498730235.1,286047007.1,N
1498730236.0,286047007.1,N
1498730255.8,286047008.7,N
1498730275.6,286047007.9,N
1498730295.5,286047004.5,N
1498730315.3,286047002.1,N
1498730335.1,286046999.2,N
1498730355.9,286046997.3,N
1498730375.7,286047000.1,N
1498730395.5,286047004.0,N
